Reflectivity
-9 -3 10 6 -9 -5 -20 -20 -20 -20 -20 -20 -20 -20 -20 2 2 12 7 9 7 12 -10 -5 -7 -19 -20 -20 -20 -20 -20 -20
-11 1 3 12 0 -20 -20 -20 -20 -20 -3 -9 -20 -20 -20 3 -3 3 -20 6 -4 5 9 -1 -12 -20 -20 -20 -20 -20 -20 -20
1 -1 7 4 9 11 2 -10 -20 -20 -20 -20 -20 -20 -11 -11 0 -20 -20 -20 -5 -14 0 -11 -20 -20 -20 -20 -20 -20 -20 -20
7 4 2 -6 2 13 -2 -18 -5 -20 -20 -20 -20 -20 -20 -5 0 -20 -20 -20 1 -13 -20 -20 -20 -20 -20 -20 -20 -20 -20 -20
1 10 12 -5 1 10 14 8 -19 -19 -20 -20 -20 -20 -20 1 1 -19 2 0 -16 -15 -20 -20 -20 -20 -20 -20 -20 -20 -20 -20
-10 3 12 1 4 4 14 12 -17 -11 -20 -20 -20 -20 -20 -20 -20 -20 -20 -20 -20 -20 -20 -20 -20 -20 -20 -20 -20 -20 -20 -20
9 7 6 2 5 6 13 7 6 -15 -20 -20 -20 -20 -20 -20 -20 -20 -20 -20 -20 -20 -20 -20 -20 -20 -20 -20 -20 -20 -20 -20
9 6 -2 3 2 9 14 10 7 -2 -20 -20 -20 -16 -13 -20 -20 -20 -20 -20 -20 -20 -20 -20 -20 -20 -20 -20 -20 -20 -20 -20
14 14 11 3 3 7 9 8 -18 -1 -8 -19 -20 -15 -20 -15 -20 -20 -20 -20 -20 -20 -20 -20 -20 -20 -20 -20 -20 -20 -20 -20
36 18 -1 12 12 11 5 8 7 -6 1 -19 -20 -20 -20 -20 -20 -20 -20 -20 -20 -20 -20 -20 -20 -20 -20 -20 -20 -20 -20 -20
35 28 18 6 6 12 -11 11 12 -3 -1 15 -5 -16 -10 -20 -20 -20 -20 -20 -20 -20 -20 -20 -20 -20 -20 -20 -20 -20 -20 -20
-9 12 33 32 27 11 15 6 -11 4 -3 -8 -12 -13 -3 -20 -20 -20 -20 -20 -20 -20 -20 -20 -20 -20 -20 -20 -20 -20 -20 -20
-4 21 30 11 -8 32 38 22 30 18 4 -4 2 -20 -20 -20 -20 -20 -20 -20 -20 -20 -20 -20 -20 -20 -20 -20 -20 -20 -20 -20
4 10 15 29 23 21 13 -7 27 33 13 5 -17 -14 -20 -20 -20 -20 -20 -20 -20 -20 -20 -20 -20 -20 -20 -20 -20 -20 -20 -20
-20 4 28 20 25 25 6 20 16 20 12 25 4 -14 -20 -20 -20 -20 -20 -20 -20 -20 -20 -20 -20 -20 -20 -20 -20 -20 -20 -20
-20 -3 -15 29 30 21 8 8 4 1 0 -7 26 2 -14 -20 -20 -20 -20 -20 -20 -20 -20 -20 -20 -20 -20 -20 -20 -20 -20 -20
-13 7 -20 -13 26 30 30 14 5 2 18 -13 3 9 3 -19 -20 -20 -20 -20 -20 -20 -20 -20 -20 -20 -20 -20 -20 -20 -20 -20
-20 2 13 11 -15 37 26 19 4 21 -8 15 6 16 15 1 -4 -17 -20 -20 -20 -20 -20 -20 -20 -20 -20 -20 -20 -20 -20 -20
-20 -20 -14 12 -19 27 25 2 6 25 3 26 6 20 14 -3 13 -20 -3 14 12 -20 -20 -20 -20 -20 -18 -5 -7 9 -20 -20
-20 -20 -20 -1 -13 -10 23 13 7 5 25 16 0 -17 10 13 10 21 -3 8 -6 10 -11 9 -15 -11 -8 -20 -20 -20 -20 -20
Wind_Speed
17 16 15 13 15 16 19 17 17 15 13 14 14 14 13 15 17 18 18 16 16 16 15 14 15 13 12 5 4 6 12 8
17 16 17 16 14 13 17 17 16 16 15 14 13 14 13 14 18 16 16 14 15 16 14 15 13 12 12 6 2 7 11 9
16 16 15 13 15 14 16 19 16 16 15 15 14 11 13 15 16 15 15 13 15 14 15 14 13 11 9 5 11 6 7 9
16 16 16 13 12 15 14 14 12 11 12 14 8 10 10 13 14 15 15 14 14 14 14 14 15 10 7 8 3 5 7 10
15 14 15 15 12 10 7 8 7 8 13 10 8 7 8 9 9 9 10 12 9 11 11 9 6 6 6 3 6 5 5 7
16 15 14 14 11 10 10 8 7 8 10 10 8 7 8 11 8 9 8 8 10 9 5 6 6 5 6 6 4 4 4 6
17 16 16 14 13 10 10 8 8 9 9 10 9 7 7 8 7 8 8 7 8 6 7 7 6 6 6 6 5 5 5 5
18 19 16 14 13 12 10 9 7 7 8 9 10 8 7 8 9 8 7 8 8 7 7 7 6 6 6 5 5 5 5 4
17 17 17 14 14 13 10 9 9 9 8 10 11 10 10 9 8 8 8 8 9 7 7 5 5 5 6 5 5 4 5 5
16 14 15 14 12 11 10 8 9 9 7 8 11 11 12 10 9 9 9 8 8 7 7 7 6 5 5 6 5 5 5 5
14 17 17 15 13 12 9 8 9 8 9 8 10 11 12 10 8 9 11 9 8 7 7 7 6 6 5 5 4 5 6 6
13 10 16 17 11 11 8 7 7 7 9 9 13 11 12 10 8 9 10 9 8 7 7 7 6 6 5 5 5 5 5 6
18 20 8 7 8 8 10 11 8 9 10 13 13 12 13 12 9 11 11 10 9 9 8 9 7 6 5 5 5 7 7 7
15 14 15 10 10 10 7 10 9 7 9 10 11 13 12 11 11 12 14 10 11 10 10 8 8 8 6 5 5 7 9 10
15 15 15 13 13 7 5 7 8 9 10 8 11 14 15 14 13 12 14 12 11 12 12 12 8 9 11 5 4 5 3 5
14 15 16 14 18 12 12 10 9 10 12 11 13 15 15 15 15 14 14 12 12 12 12 11 11 10 9 10 8 5 4 4
12 15 16 17 18 12 10 12 9 8 5 11 15 14 17 16 16 15 15 12 14 13 13 13 11 10 9 8 10 9 8 7
15 15 15 18 17 11 12 15 13 8 9 9 10 9 12 13 15 15 15 15 14 13 14 15 14 12 10 10 8 7 8 8
14 15 16 18 17 17 15 14 14 15 14 11 11 9 10 13 13 13 12 15 13 14 15 15 15 13 14 10 10 10 9 7
16 14 16 17 16 16 12 7 10 10 12 11 9 8 8 11 11 14 15 17 13 15 12 13 14 13 17 14 12 11 10 10
Wind_Direction
152 156 144 131 138 138 129 124 121 122 124 126 117 117 115 115 115 111 112 116 117 119 119 121 118 109 107 88 4 328 105 92
158 156 159 158 153 134 128 123 124 124 124 121 114 111 113 119 113 114 118 122 122 121 122 120 120 114 102 94 230 258 101 110
162 160 162 160 158 147 133 123 120 120 123 122 147 138 147 154 109 124 122 125 125 124 122 118 123 112 104 179 241 99 110 90
165 163 163 160 160 163 154 144 150 150 150 161 156 148 150 121 123 126 126 127 125 125 129 145 178 141 142 214 115 108 90 112
168 170 165 165 164 176 161 158 151 157 153 168 138 153 143 138 141 147 141 154 142 145 158 190 141 143 163 120 123 151 125 122
167 171 174 177 164 175 169 166 154 163 163 158 161 165 173 149 172 163 159 174 153 162 163 114 141 127 138 132 138 127 117 103
173 172 187 179 177 180 176 165 177 160 163 173 174 167 177 172 162 167 178 155 163 162 139 154 145 150 150 150 154 115 142 115
178 179 188 180 190 172 180 170 175 171 171 177 177 166 183 175 168 172 172 171 160 161 161 151 158 149 156 156 166 155 156 153
188 186 185 184 191 182 181 180 174 187 184 178 182 183 184 182 175 174 173 170 164 159 166 159 155 172 157 165 167 167 167 170
188 186 183 184 189 183 177 187 185 184 199 188 191 191 188 186 182 179 170 167 176 169 175 173 170 173 163 168 189 184 182 202
202 199 194 186 182 181 174 190 193 193 192 189 197 196 194 193 189 180 174 177 181 184 182 189 174 178 180 183 197 201 188 199
327 190 208 196 181 173 163 176 194 187 197 207 185 195 194 201 188 189 190 184 184 194 195 190 192 184 181 190 199 209 219 219
357 351 205 192 171 183 169 186 194 194 206 209 199 198 190 198 196 190 200 202 198 193 194 189 190 179 187 205 214 223 229 236
347 346 328 271 203 192 185 185 182 192 215 198 207 202 193 198 205 194 197 199 200 199 201 190 195 189 197 208 216 198 221 226
347 338 321 302 240 185 169 185 182 181 207 208 196 206 201 198 204 204 198 204 198 201 201 202 201 198 227 227 203 237 163 183
342 340 327 312 287 183 176 186 187 200 209 191 209 208 209 199 201 208 205 207 207 207 206 210 218 203 203 233 257 308 250 201
342 339 334 325 313 194 188 193 211 205 176 200 216 206 213 207 205 206 209 214 215 217 215 214 212 224 205 208 225 234 242 262
344 346 337 331 325 243 198 205 198 203 192 198 204 198 212 216 216 213 213 212 215 216 224 221 226 222 228 223 219 216 224 233
341 344 339 333 333 327 212 205 210 202 196 197 192 198 199 212 216 219 218 218 214 215 215 224 227 227 228 224 227 235 244 224
335 340 338 333 336 330 328 251 209 214 212 206 198 201 199 203 209 226 218 224 222 224 225 224 226 225 229 228 237 235 239 243